Time,TemperatureF,DewpointF,PressureIn,WindDirection,WindDirectionDegrees,WindSpeedMPH,WindSpeedGustMPH,Humidity,HourlyPrecipIn,Conditions,Clouds,dailyrainin,SoftwareType,DateUTC
2013-06-22 00:10:00,66.6,63.0,29.89,ESE,123,11.0,-999.0,87,-99.99,,,0.17,weatherlink.com 1.10,2013-06-22 05:10:00,
2013-06-22 00:25:00,66.6,62.0,29.84,ESE,111,10.0,-999.0,86,-99.99,,,0.25,weatherlink.com 1.10,2013-06-22 05:25:00,
2013-06-22 00:39:00,66.5,62.0,29.85,ESE,122,5.0,-999.0,85,-99.99,,,0.28,weatherlink.com 1.10,2013-06-22 05:39:00,
2013-06-22 00:53:00,66.7,62.0,29.82,ESE,111,3.0,-999.0,85,-99.99,,,0.28,weatherlink.com 1.10,2013-06-22 05:53:00,
2013-06-22 01:07:00,66.8,62.0,29.83,SE,126,5.0,-999.0,85,-99.99,,,0.28,weatherlink.com 1.10,2013-06-22 06:07:00,
2013-06-22 01:22:00,66.9,62.0,29.83,ESE,116,4.0,-999.0,85,-99.99,,,0.30,weatherlink.com 1.10,2013-06-22 06:22:00,
2013-06-22 01:36:00,66.3,62.0,29.87,SW,215,2.0,-999.0,87,-99.99,,,0.33,weatherlink.com 1.10,2013-06-22 06:36:00,
2013-06-22 01:50:00,66.2,63.0,29.89,SSW,204,3.0,-999.0,88,-99.99,,,0.37,weatherlink.com 1.10,2013-06-22 06:50:00,
2013-06-22 02:05:00,66.3,63.0,29.91,South,185,3.0,-999.0,89,-99.99,,,0.40,weatherlink.com 1.10,2013-06-22 07:05:00,
2013-06-22 02:19:00,66.1,62.0,29.91,SSE,152,2.0,-999.0,88,-99.99,,,0.44,weatherlink.com 1.10,2013-06-22 07:19:00,
2013-06-22 02:33:00,65.9,62.0,29.92,ESE,105,4.0,-999.0,88,-99.99,,,0.47,weatherlink.com 1.10,2013-06-22 07:33:00,
2013-06-22 02:47:00,65.8,62.0,29.92,ESE,118,4.0,-999.0,88,-99.99,,,0.50,weatherlink.com 1.10,2013-06-22 07:47:00,
2013-06-22 03:02:00,65.4,62.0,29.91,SSW,211,1.0,-999.0,89,-99.99,,,0.57,weatherlink.com 1.10,2013-06-22 08:02:00,
2013-06-22 03:16:00,65.3,63.0,29.91,SSW,200,0.0,-999.0,91,-99.99,,,0.61,weatherlink.com 1.10,2013-06-22 08:16:00,
2013-06-22 03:30:00,65.3,63.0,29.90,SSW,206,1.0,-999.0,91,-99.99,,,0.64,weatherlink.com 1.10,2013-06-22 08:30:00,
2013-06-22 03:44:00,65.2,63.0,29.90,WSW,239,0.0,-999.0,91,-99.99,,,0.68,weatherlink.com 1.10,2013-06-22 08:44:00,
2013-06-22 03:59:00,65.2,63.0,29.91,WSW,258,1.0,-999.0,91,-99.99,,,0.71,weatherlink.com 1.10,2013-06-22 08:59:00,
2013-06-22 04:13:00,65.3,63.0,29.91,West,268,0.0,-999.0,91,-99.99,,,0.75,weatherlink.com 1.10,2013-06-22 09:13:00,
2013-06-22 04:27:00,65.2,63.0,29.90,West,268,0.0,-999.0,92,-99.99,,,0.80,weatherlink.com 1.10,2013-06-22 09:27:00,
2013-06-22 04:42:00,65.2,63.0,29.90,West,268,0.0,-999.0,92,-99.99,,,0.83,weatherlink.com 1.10,2013-06-22 09:42:00,
2013-06-22 04:56:00,65.2,63.0,29.90,West,268,3.0,-999.0,92,-99.99,,,0.85,weatherlink.com 1.10,2013-06-22 09:56:00,
2013-06-22 05:10:00,64.7,62.0,29.92,WSW,251,3.0,-999.0,92,-99.99,,,0.86,weatherlink.com 1.10,2013-06-22 10:10:00,
2013-06-22 05:24:00,64.6,62.0,29.92,WSW,239,0.0,-999.0,92,-99.99,,,0.88,weatherlink.com 1.10,2013-06-22 10:24:00,
2013-06-22 05:39:00,64.6,62.0,29.93,SSW,206,2.0,-999.0,92,-99.99,,,0.90,weatherlink.com 1.10,2013-06-22 10:39:00,
2013-06-22 05:53:00,64.6,62.0,29.88,NNE,33,3.0,-999.0,92,-99.99,,,0.90,weatherlink.com 1.10,2013-06-22 10:53:00,
2013-06-22 06:07:00,64.4,62.0,29.83,ENE,78,0.0,-999.0,92,-99.99,,,0.90,weatherlink.com 1.10,2013-06-22 11:07:00,
2013-06-22 06:22:00,64.6,62.0,29.83,SE,127,2.0,-999.0,92,-99.99,,,0.90,weatherlink.com 1.10,2013-06-22 11:22:00,
2013-06-22 06:36:00,65.3,63.0,29.83,East,87,8.0,-999.0,92,-99.99,,,0.90,weatherlink.com 1.10,2013-06-22 11:36:00,
2013-06-22 06:50:00,65.8,63.0,29.83,East,85,2.0,-999.0,91,-99.99,,,0.90,weatherlink.com 1.10,2013-06-22 11:50:00,
2013-06-22 07:05:00,65.7,63.0,29.81,East,79,6.0,-999.0,90,-99.99,,,0.90,weatherlink.com 1.10,2013-06-22 12:05:00,
2013-06-22 07:19:00,65.7,63.0,29.80,East,83,3.0,-999.0,91,-99.99,,,0.90,weatherlink.com 1.10,2013-06-22 12:19:00,
2013-06-22 07:33:00,65.6,63.0,29.81,East,84,3.0,-999.0,91,-99.99,,,0.90,weatherlink.com 1.10,2013-06-22 12:33:00,
2013-06-22 07:47:00,66.0,63.0,29.84,ESE,123,1.0,-999.0,91,-99.99,,,0.90,weatherlink.com 1.10,2013-06-22 12:47:00,
2013-06-22 08:02:00,66.1,64.0,29.84,SE,133,2.0,-999.0,92,-99.99,,,0.90,weatherlink.com 1.10,2013-06-22 13:02:00,
2013-06-22 08:16:00,66.2,64.0,29.84,East,83,2.0,-999.0,92,-99.99,,,0.90,weatherlink.com 1.10,2013-06-22 13:16:00,
2013-06-22 08:30:00,66.6,64.0,29.87,East,96,2.0,-999.0,92,-99.99,,,0.90,weatherlink.com 1.10,2013-06-22 13:30:00,
2013-06-22 08:44:00,66.7,64.0,29.90,ESE,123,1.0,-999.0,92,-99.99,,,0.91,weatherlink.com 1.10,2013-06-22 13:44:00,
2013-06-22 08:58:00,66.8,64.0,29.92,ENE,68,0.0,-999.0,90,-99.99,,,0.91,weatherlink.com 1.10,2013-06-22 13:58:00,
2013-06-22 09:13:00,67.0,64.0,29.91,ENE,62,0.0,-999.0,90,-99.99,,,0.91,weatherlink.com 1.10,2013-06-22 14:13:00,
2013-06-22 09:27:00,67.3,64.0,29.92,ENE,62,1.0,-999.0,90,-99.99,,,0.91,weatherlink.com 1.10,2013-06-22 14:27:00,
2013-06-22 09:41:00,67.7,65.0,29.91,North,4,2.0,-999.0,90,-99.99,,,0.91,weatherlink.com 1.10,2013-06-22 14:41:00,
2013-06-22 09:55:00,68.0,65.0,29.90,NNW,342,4.0,-999.0,90,-99.99,,,0.91,weatherlink.com 1.10,2013-06-22 14:55:00,
2013-06-22 10:10:00,68.1,65.0,29.90,North,2,0.0,-999.0,89,-99.99,,,0.91,weatherlink.com 1.10,2013-06-22 15:10:00,
2013-06-22 10:24:00,68.3,65.0,29.91,NE,42,0.0,-999.0,89,-99.99,,,0.91,weatherlink.com 1.10,2013-06-22 15:24:00,
2013-06-22 10:38:00,68.5,65.0,29.91,North,356,2.0,-999.0,88,-99.99,,,0.91,weatherlink.com 1.10,2013-06-22 15:38:00,
2013-06-22 10:52:00,68.6,65.0,29.91,ESE,104,1.0,-999.0,89,-99.99,,,0.91,weatherlink.com 1.10,2013-06-22 15:52:00,
2013-06-22 11:07:00,68.4,65.0,29.91,North,8,3.0,-999.0,89,-99.99,,,0.91,weatherlink.com 1.10,2013-06-22 16:07:00,
2013-06-22 11:21:00,68.4,65.0,29.90,NNE,29,2.0,-999.0,89,-99.99,,,0.91,weatherlink.com 1.10,2013-06-22 16:21:00,
2013-06-22 11:35:00,69.0,66.0,29.87,North,2,3.0,-999.0,89,-99.99,,,0.91,weatherlink.com 1.10,2013-06-22 16:35:00,
2013-06-22 11:49:00,69.5,66.0,29.87,East,83,3.0,-999.0,88,-99.99,,,0.91,weatherlink.com 1.10,2013-06-22 16:49:00,
2013-06-22 12:04:00,70.5,66.0,29.87,East,83,3.0,-999.0,87,-99.99,,,0.91,weatherlink.com 1.10,2013-06-22 17:04:00,
2013-06-22 12:18:00,70.2,66.0,29.88,ENE,73,2.0,-999.0,87,-99.99,,,0.91,weatherlink.com 1.10,2013-06-22 17:18:00,
2013-06-22 12:33:00,70.4,66.0,29.87,NNE,27,0.0,-999.0,85,-99.99,,,0.91,weatherlink.com 1.10,2013-06-22 17:33:00,
2013-06-22 12:47:00,71.5,67.0,29.86,NE,49,2.0,-999.0,87,-99.99,,,0.91,weatherlink.com 1.10,2013-06-22 17:47:00,
2013-06-22 13:01:00,71.9,66.0,29.86,East,87,3.0,-999.0,83,-99.99,,,0.91,weatherlink.com 1.10,2013-06-22 18:01:00,
2013-06-22 13:15:00,71.7,66.0,29.86,North,6,4.0,-999.0,83,-99.99,,,0.91,weatherlink.com 1.10,2013-06-22 18:15:00,
2013-06-22 13:30:00,72.4,67.0,29.87,North,7,0.0,-999.0,82,-99.99,,,0.91,weatherlink.com 1.10,2013-06-22 18:30:00,
2013-06-22 13:44:00,73.2,68.0,29.87,ENE,66,2.0,-999.0,84,-99.99,,,0.91,weatherlink.com 1.10,2013-06-22 18:44:00,
2013-06-22 13:58:00,73.8,68.0,29.87,ENE,68,0.0,-999.0,81,-99.99,,,0.91,weatherlink.com 1.10,2013-06-22 18:58:00,
2013-06-22 14:13:00,74.5,68.0,29.86,NE,48,0.0,-999.0,80,-99.99,,,0.91,weatherlink.com 1.10,2013-06-22 19:13:00,
2013-06-22 14:27:00,74.0,67.0,29.86,North,7,3.0,-999.0,80,-99.99,,,0.91,weatherlink.com 1.10,2013-06-22 19:27:00,
2013-06-22 14:41:00,74.4,68.0,29.85,North,5,4.0,-999.0,81,-99.99,,,0.91,weatherlink.com 1.10,2013-06-22 19:41:00,
2013-06-22 14:55:00,74.6,68.0,29.84,ENE,74,1.0,-999.0,79,-99.99,,,0.91,weatherlink.com 1.10,2013-06-22 19:55:00,
2013-06-22 15:10:00,75.5,68.0,29.85,East,92,2.0,-999.0,78,-99.99,,,0.91,weatherlink.com 1.10,2013-06-22 20:10:00,
2013-06-22 15:24:00,74.6,68.0,29.85,ENE,77,2.0,-999.0,79,-99.99,,,0.91,weatherlink.com 1.10,2013-06-22 20:24:00,
2013-06-22 15:38:00,75.5,69.0,29.86,East,87,1.0,-999.0,81,-99.99,,,0.91,weatherlink.com 1.10,2013-06-22 20:38:00,
2013-06-22 15:52:00,76.2,68.0,29.86,North,6,0.0,-999.0,77,-99.99,,,0.91,weatherlink.com 1.10,2013-06-22 20:52:00,
2013-06-22 16:07:00,76.0,69.0,29.86,ESE,103,2.0,-999.0,78,-99.99,,,0.91,weatherlink.com 1.10,2013-06-22 21:07:00,
2013-06-22 16:21:00,76.4,69.0,29.85,SSE,149,0.0,-999.0,77,-99.99,,,0.91,weatherlink.com 1.10,2013-06-22 21:21:00,
2013-06-22 16:35:00,77.3,69.0,29.85,NE,38,0.0,-999.0,75,-99.99,,,0.91,weatherlink.com 1.10,2013-06-22 21:35:00,
2013-06-22 16:49:00,77.6,70.0,29.84,NW,324,1.0,-999.0,77,-99.99,,,0.91,weatherlink.com 1.10,2013-06-22 21:49:00,
2013-06-22 17:04:00,76.5,68.0,29.83,NNE,14,0.0,-999.0,76,-99.99,,,0.91,weatherlink.com 1.10,2013-06-22 22:04:00,
2013-06-22 17:18:00,78.0,69.0,29.82,East,88,3.0,-999.0,74,-99.99,,,0.91,weatherlink.com 1.10,2013-06-22 22:18:00,
2013-06-22 17:32:00,78.0,69.0,29.82,ENE,74,2.0,-999.0,75,-99.99,,,0.91,weatherlink.com 1.10,2013-06-22 22:32:00,
2013-06-22 17:46:00,78.0,69.0,29.81,North,360,1.0,-999.0,74,-99.99,,,0.91,weatherlink.com 1.10,2013-06-22 22:46:00,
2013-06-22 18:01:00,78.1,69.0,29.81,NNW,345,2.0,-999.0,74,-99.99,,,0.91,weatherlink.com 1.10,2013-06-22 23:01:00,
2013-06-22 18:15:00,78.3,69.0,29.81,East,98,4.0,-999.0,73,-99.99,,,0.91,weatherlink.com 1.10,2013-06-22 23:15:00,
2013-06-22 18:30:00,78.3,69.0,29.81,ENE,78,1.0,-999.0,72,-99.99,,,0.91,weatherlink.com 1.10,2013-06-22 23:30:00,
2013-06-22 18:44:00,78.2,69.0,29.81,NNE,16,0.0,-999.0,74,-99.99,,,0.91,weatherlink.com 1.10,2013-06-22 23:44:00,
2013-06-22 18:58:00,77.9,69.0,29.81,ENE,73,4.0,-999.0,74,-99.99,,,0.91,weatherlink.com 1.10,2013-06-22 23:58:00,
2013-06-22 19:12:00,77.7,69.0,29.80,East,82,0.0,-999.0,74,-99.99,,,0.91,weatherlink.com 1.10,2013-06-23 00:12:00,
2013-06-22 19:27:00,77.2,69.0,29.80,ENE,58,0.0,-999.0,76,-99.99,,,0.91,weatherlink.com 1.10,2013-06-23 00:27:00,
2013-06-22 19:41:00,76.6,68.0,29.80,NNE,22,3.0,-999.0,76,-99.99,,,0.91,weatherlink.com 1.10,2013-06-23 00:41:00,
2013-06-22 19:55:00,76.2,68.0,29.79,North,358,1.0,-999.0,77,-99.99,,,0.91,weatherlink.com 1.10,2013-06-23 00:55:00,
2013-06-22 20:09:00,75.9,68.0,29.79,NNE,22,2.0,-999.0,77,-99.99,,,0.91,weatherlink.com 1.10,2013-06-23 01:09:00,
2013-06-22 20:24:00,75.4,68.0,29.78,NNE,23,0.0,-999.0,79,-99.99,,,0.91,weatherlink.com 1.10,2013-06-23 01:24:00,
2013-06-22 20:38:00,74.9,68.0,29.78,NNE,22,1.0,-999.0,80,-99.99,,,0.91,weatherlink.com 1.10,2013-06-23 01:38:00,
2013-06-22 20:52:00,74.5,68.0,29.79,NNE,23,1.0,-999.0,81,-99.99,,,0.91,weatherlink.com 1.10,2013-06-23 01:52:00,
2013-06-22 21:06:00,74.0,68.0,29.78,North,7,1.0,-999.0,82,-99.99,,,0.91,weatherlink.com 1.10,2013-06-23 02:06:00,
2013-06-22 21:20:00,73.4,68.0,29.78,North,7,1.0,-999.0,83,-99.99,,,0.91,weatherlink.com 1.10,2013-06-23 02:20:00,
2013-06-22 21:35:00,73.0,68.0,29.79,North,7,0.0,-999.0,84,-99.99,,,0.91,weatherlink.com 1.10,2013-06-23 02:35:00,
2013-06-22 21:49:00,72.9,68.0,29.80,North,7,0.0,-999.0,84,-99.99,,,0.91,weatherlink.com 1.10,2013-06-23 02:49:00,
2013-06-22 22:03:00,73.0,68.0,29.80,North,7,0.0,-999.0,84,-99.99,,,0.91,weatherlink.com 1.10,2013-06-23 03:03:00,
2013-06-22 22:18:00,72.8,68.0,29.80,NNE,23,0.0,-999.0,85,-99.99,,,0.91,weatherlink.com 1.10,2013-06-23 03:18:00,
2013-06-22 22:32:00,73.1,68.0,29.80,East,100,0.0,-999.0,85,-99.99,,,0.91,weatherlink.com 1.10,2013-06-23 03:32:00,
2013-06-22 22:46:00,73.2,68.0,29.79,East,81,3.0,-999.0,85,-99.99,,,0.91,weatherlink.com 1.10,2013-06-23 03:46:00,
2013-06-22 23:00:00,72.6,68.0,29.79,NNE,27,1.0,-999.0,86,-99.99,,,0.92,weatherlink.com 1.10,2013-06-23 04:00:00,
2013-06-22 23:14:00,72.2,68.0,29.78,East,92,3.0,-999.0,88,-99.99,,,0.92,weatherlink.com 1.10,2013-06-23 04:14:00,
2013-06-22 23:29:00,72.1,68.0,29.77,East,79,0.0,-999.0,88,-99.99,,,0.92,weatherlink.com 1.10,2013-06-23 04:29:00,
2013-06-22 23:43:00,71.9,68.0,29.78,ENE,77,0.0,-999.0,89,-99.99,,,0.92,weatherlink.com 1.10,2013-06-23 04:43:00,
2013-06-22 23:57:00,71.7,68.0,29.78,East,82,4.0,-999.0,89,-99.99,,,0.92,weatherlink.com 1.10,2013-06-23 04:57:00,